Simultaneous Nadir Overpasses (SNOs) Predictions

Prediction of SNOs between AQUA and NOAA-19 Satellite Orbit:

Table of predicted SNOs for the next 14.0 days since TLE Epoch: 11/13/2020
Index Date (AQUA) Time (AQUA) Lat,Lon (AQUA) SZA (AQUA ) Date (NOAA-19) Time (NOAA-19) Lat,Lon (NOAA-19) SZA (NOAA-19 ) Distance(km) Time Diff (sec)
1 11/15/2020 00:55:07 -79.37, -39.73 81.40 11/15/2020 00:54:02 -79.36, -39.82 81.38 2.22 65
2 11/15/2020 01:44:35 79.40, 127.68 98.66 11/15/2020 01:44:55 79.40, 127.84 98.65 3.36 20
3 11/17/2020 07:18:17 -79.37,-135.53 80.83 11/17/2020 07:18:16 -79.37,-135.63 80.82 2.04 1
4 11/19/2020 12:52:01 79.37, -38.98 99.71 11/19/2020 12:51:25 79.35, -39.01 99.71 1.93 36
5 11/19/2020 13:41:27 -79.37, 128.64 80.28 11/19/2020 13:42:30 -79.39, 128.55 80.28 2.64 63
6 11/21/2020 18:25:42 -79.35, 57.75 79.83 11/21/2020 18:24:44 -79.36, 57.79 79.80 1.61 58
7 11/21/2020 19:15:10 79.38,-134.83 100.23 11/21/2020 19:15:38 79.37,-134.84 100.22 1.23 28
8 11/24/2020 00:48:52 -79.36, -38.12 79.33 11/24/2020 00:48:58 -79.37, -38.08 79.32 1.55 6
9 11/26/2020 06:22:35 79.33, 58.61 101.08 11/26/2020 06:22:07 79.35, 58.57 101.11 2.37 28
